Location: Unspecified
(43.4680°N, 87.1740°E)
Time: 19:37:20
(UTC+00:00)

BREEZE-M DEB (TANK) - Pass Details

Date: 17 April 2021
Orbit: 292 x 15380 km, 49.4° (Epoch: 10 May)

Event Time Altitude Azimuth Distance (km) Brightness Sun altitude
Rises 15:15:54 0° 279° (W) 8,675 9.8 -22.8°
Reaches altitude 10° 15:24:27 10° 285° (WNW) 5,441 8.6 -23.9°
Maximum altitude 15:35:20 50° 359° (N) 1,084 4.4 -25.3°
Enters shadow 15:36:40 37° 50° (NE) 1,089 4.2 -25.5°
